Overview Statistics Trail Chart Weather Telemetry Raw packets
 

This is the latest recevied weather packets stored in our database for station/object KC9DRE. If no packets are shown the sender has not sent any weather packets the latest 10 day(s).

<< 21 22 23 24 25 26 27 >>
Time Temp. Humidity Pressure Rain* Wind** Luminosity Snow
1777761883 12.78° C 52% 1017.6 hPa 0 mm - 106 W/m² -
1777761580 12.78° C 49% 1017.5 hPa 0 mm - 81 W/m² -
1777761278 13.33° C 45% 1017.4 hPa 0 mm - 86 W/m² -
1777760976 13.89° C 47% 1017.2 hPa 0 mm - 167 W/m² -
1777760673 13.89° C 46% 1017.4 hPa 0 mm - 108 W/m² -
1777760369 14.44° C 44% 1017.5 hPa 0 mm - 277 W/m² -
1777760065 15° C 44% 1017.4 hPa 0 mm - 163 W/m² -
1777759762 15° C 43% 1017.2 hPa 0 mm - 298 W/m² -
1777759458 13.89° C 47% 1017.5 hPa 0 mm - 389 W/m² -
1777759155 13.33° C 45% 1017.5 hPa 0 mm - 201 W/m² -
1777758852 13.33° C 47% 1017.3 hPa 0 mm - 192 W/m² -
1777758549 13.33° C 44% 1017.3 hPa 0 mm - 183 W/m² -
1777758246 13.89° C 46% 1017.4 hPa 0 mm - 195 W/m² -
1777757943 14.44° C 42% 1017.3 hPa 0 mm - 193 W/m² -
1777757640 13.89° C 46% 1017.1 hPa 0 mm - 351 W/m² -
1777757339 13.89° C 42% 1017.4 hPa 0 mm - 249 W/m² -
1777757037 13.33° C 44% 1017.3 hPa 0 mm - 544 W/m² -
1777756734 13.89° C 45% 1017.4 hPa 0 mm - 181 W/m² -
1777756429 13.33° C 44% 1017.4 hPa 0 mm - 409 W/m² -
1777756127 13.33° C 50% 1017.5 hPa 0 mm - 224 W/m² -
1777755824 13.33° C 50% 1017.5 hPa 0 mm - 175 W/m² -
1777755521 13.33° C 47% 1017.4 hPa 0 mm - 236 W/m² -
1777755217 12.78° C 49% 1017.5 hPa 0 mm - 285 W/m² -
1777754914 12.78° C 50% 1017.5 hPa 0 mm - 235 W/m² -
1777754612 12.78° C 48% 1017.5 hPa 0 mm - 159 W/m² -

* Rain latest hour (hover to see other rain measurements)
** Current wind speed in m/s (hover to see current wind gust speed)